Content
SEND FEEDBACK

Daily
Averages
Monthly
Summary
United States of America

GRAY HAWK, KENTUCKY


Home > North America > United States > Kentucky
Elevation: 128 feet     Latitude: 37 24N     Longitude: 083 56W

WEATHER
 
SELECT A DAY
Number of Records: 200,572;   Date Range: 1/1/95 - 7/29/14
 
SHARE

PRINT THIS DATA

[ ← Previous Day ]
WEATHER ALMANAC - JANUARY 31, 2013
[ Next Day → ]
[ °C ]   °F
Weather ElementAverageHighLow
Temperature31.9 °F36 °F (2:53 pm)28.4 °F (12:22 pm)
Dewpoint27.2 °F32 °F (12:34 am)21 °F (8:53 am)
Humidity83.4 %100 % (3:07 am)55 % (5:53 pm)
Barometer29.93 in30.03 in (11:53 am)29.71 in (12:34 am)
Wind Speed12.7 mph20.7 mph (12:34 am)
Wind Gust34.5 mph (12:34 am)
Weather ElementAverage
Visibility6.6 mi
Wind DirectionWSW (255.2 °)

Weather ElementTotal
Precipitation0.07 in
Heating Degree Days32.8 (Base 65)
Averaged from 44 records on January 31, 2013
WEATHER CONDITIONS BREAKOUT
WIND DIRECTION BREAKOUT
WEATHER BY HOUR - JANUARY 31, 2013
[ °C ]   °F
Local TimeTemperatureDewpointHumidityBarometerVisibilityWind DirectionWind SpeedGust SpeedPrecipitationEventsConditions
12:34 AM33.8 °F32.0 °F93 %29.71 in6.0 miWest (270°)20.7 mph34.5 mph0.00 inSnowLight Snow
12:53 AM33.1 °F30.9 °F92 %29.74 in10.0 miWest (270°)19.6 mph32.2 mph0.00 inOvercast
1:40 AM32.0 °F30.2 °F93 %29.77 in10.0 miWest (270°)16.1 mph23.0 mph0.00 inOvercast
1:53 AM32.0 °F30.9 °F96 %29.78 in10.0 miWest (280°)19.6 mph28.8 mph0.00 inOvercast
2:53 AM30.9 °F30.0 °F96 %29.81 in10.0 miWest (270°)13.8 mph20.7 mph0.00 inOvercast
3:07 AM30.2 °F30.2 °F100 %29.81 in10.0 miWest (260°)16.1 mph26.5 mphOvercast
3:53 AM30.0 °F27.0 °F88 %29.84 in10.0 miWest (280°)18.4 mph32.2 mph0.00 inOvercast
4:12 AM30.2 °F26.6 °F86 %29.84 in10.0 miWest (280°)10.4 mph21.9 mph0.00 inOvercast
4:49 AM30.2 °F24.8 °F80 %29.85 in10.0 miWest (270°)16.1 mph28.8 mph0.00 inOvercast
4:53 AM30.0 °F25.0 °F82 %29.86 in10.0 miWest (260°)18.4 mph28.8 mph0.00 inOvercast
5:53 AM28.9 °F25.0 °F85 %29.87 in10.0 miWNW (290°)13.8 mph20.7 mphOvercast
6:53 AM28.9 °F24.1 °F82 %29.90 in10.0 miWest (280°)16.1 mph21.9 mphOvercast
7:53 AM28.9 °F23.0 °F78 %29.93 in10.0 miWest (280°)13.8 mphOvercast
8:53 AM28.9 °F21.0 °F72 %29.97 in10.0 miWest (270°)20.7 mph29.9 mphOvercast
9:53 AM28.9 °F21.9 °F75 %29.99 in10.0 miWest (260°)13.8 mphOvercast
10:53 AM28.9 °F24.1 °F82 %30.02 in4.0 miWSW (240°)16.1 mph0.00 inSnowLight Snow
11:49 AM30.2 °F24.8 °F80 %30.00 in4.0 miWSW (250°)12.7 mph0.00 inSnowLight Snow
11:53 AM30.0 °F25.0 °F82 %30.03 in4.0 miWSW (250°)13.8 mph0.00 inSnowLight Snow
12:22 PM28.4 °F24.8 °F86 %30.00 in2.5 miWest (260°)13.8 mph0.00 inSnowLight Snow
12:32 PM30.2 °F26.6 °F86 %30.00 in4.0 miWest (260°)12.7 mph0.00 inSnowLight Snow
12:53 PM30.0 °F25.0 °F82 %30.03 in8.0 miWest (270°)15.0 mph24.2 mph0.00 inSnowLight Snow
1:11 PM32.0 °F26.6 °F80 %29.99 in10.0 miWest (270°)16.1 mph24.2 mph0.00 inOvercast
1:53 PM32.0 °F25.0 °F75 %30.01 in10.0 miWest (260°)13.8 mph0.00 inMostly Cloudy
2:53 PM36.0 °F25.0 °F64 %29.98 in10.0 miSW (230°)17.3 mph23.0 mphScattered Clouds
3:53 PM36.0 °F25.0 °F64 %30.00 in10.0 miWest (270°)15.0 mph24.2 mphOvercast
4:53 PM36.0 °F26.1 °F67 %30.00 in10.0 miWest (270°)15.0 mphOvercast
5:53 PM36.0 °F21.0 °F55 %29.99 in10.0 miWSW (240°)11.5 mphOvercast
6:53 PM36.0 °F21.9 °F57 %29.99 in10.0 miWSW (240°)5.8 mphOvercast
7:53 PM35.1 °F24.1 °F64 %30.00 in9.0 miWSW (250°)12.7 mph27.6 mph0.00 inSnowLight Snow
8:19 PM33.8 °F26.6 °F75 %29.97 in4.0 miWSW (250°)13.8 mph0.00 inSnowLight Snow
8:53 PM33.1 °F28.9 °F85 %30.00 in5.0 miWSW (250°)8.1 mph0.00 inSnowLight Snow
9:25 PM32.0 °F28.4 °F87 %29.95 in2.5 miWSW (240°)6.9 mph0.00 inSnowLight Snow
9:43 PM32.0 °F30.2 °F93 %29.95 in4.0 miWSW (240°)3.5 mph0.00 inSnowLight Snow
9:53 PM32.0 °F30.0 °F92 %29.98 in4.0 miSW (220°)4.6 mph0.00 inSnowLight Snow
10:19 PM32.0 °F30.2 °F93 %29.94 in2.5 miSW (220°)4.6 mph0.00 inSnowLight Snow
10:32 PM32.0 °F30.2 °F93 %29.94 in3.0 miSW (220°)5.8 mph0.00 inSnowLight Snow
10:43 PM33.8 °F30.2 °F87 %29.93 in3.0 miSW (230°)5.8 mph0.00 inSnowLight Snow
10:53 PM33.1 °F30.9 °F92 %29.96 in2.5 miSW (230°)5.8 mph0.00 inSnowLight Snow
11:06 PM33.8 °F30.2 °F87 %29.93 in4.0 miSW (230°)6.9 mph0.00 inSnowLight Snow
11:15 PM33.8 °F30.2 °F87 %29.93 in2.0 miWSW (240°)10.4 mph0.00 inSnowLight Snow
11:22 PM32.0 °F30.2 °F93 %29.94 in1.2 miWSW (240°)10.4 mph0.01 inSnowLight Snow
11:32 PM32.0 °F30.2 °F93 %29.94 in0.8 miWSW (240°)9.2 mph0.01 inSnowLight Snow
11:46 PM32.0 °F30.2 °F93 %29.95 in0.8 miWest (260°)12.7 mph0.02 inSnowLight Snow
11:53 PM32.0 °F30.9 °F96 %29.99 in0.8 miWest (270°)12.7 mph0.03 inSnowLight Snow
Hourly data recorded from KLOZ, located miles away from Gray Hawk, Kentucky







STORIES FROM OUR PARTNERS